User: anonymous   Login
Location: Marsån
(66.4167°N, 22.2833°E)
Time: 00:29:54
(UTC+00:00)
Language:

Cosmos 2026 Rocket - Orbit

View from above orbital plane
View from above orbital plane
View from above satellite
View from above satellite

Ground track
Ground track

The orbit data is extracted from the following two-line orbital elements,

1 20046U 89042B   25136.49952537  .00000169  00000-0  15164-3 0  9992
2 20046  82.9345 308.5652 0040736 241.0334 118.6737 13.78556883807182
Epoch (UTC): 16 May 2025 11:59:18
Eccentricity: 0.0040736
inclination: 82.9345°
perigee height: 939 km
apogee height: 999 km
right ascension of ascending node: 308.5652°
argument of perigee: 241.0334°
revolutions per day: 13.78556883
mean anomaly at epoch: 118.6737°
orbit number at epoch: 80718

The dashed part of the orbit path shows where the satellite is in the earth's shadow,  

DLR